Aeroporto :
LOGIN :

Iscrizione | Disclaimer

   EN    FR    IT 

 










Sommario :    VFR   VFR Marginale   IFR   IFR Intensivo   IFR Molto Intensivo
Visibilità : 
Base nubi : 
>= 8 km
>= 3000ft
5 / 8 km
1000 / 3000 ft
1500m / 5 km
500 / 1000 ft
800 / 1500m
200 / 500 ft
< 800m
< 200 ft
Simboli :   Temporali  Nebbia  Neve Forte  Precipitazioni Forti  Vento > 20 kt
SIGMETs :   Varie  Temporali  Ghiacco  Turbolenza  Onda orograficha  Ceneri Vulcaniche







- Altitudine del aeroporto : 459 ft
- Codice IATA : CER
- Carte del aeroporto


LFRC - Cherbourg / Maupertus

ULTIMO METAR :
  • 170930Z AUTO 24006KT 220V280 9999 FEW023 SCT035 OVC056 18/12 Q1019 NOSIG

METARs OBSOLETI :
  • 170900Z AUTO 23007KT 190V260 CAVOK 18/12 Q1018 NOSIG
  • 170830Z AUTO 22008KT 9999 SCT023 OVC050 17/12 Q1018 NOSIG
  • 170800Z AUTO 26007KT 9999 BKN024 BKN029 BKN058 18/12 Q1018 NOSIG
  • 170730Z AUTO 28007KT 230V330 9999 SCT022 BKN060 18/12 Q1018 NOSIG
  • 170700Z AUTO 25006KT 220V300 CAVOK 18/12 Q1018 NOSIG

TAF TAF LFRC
Valido dal 17 a 09 ore il 17 a 18 ore UTC


170800Z 1709/1718 26010KT 9999 BKN030
Nessun NOTAM noto per questo aeroporto.



MetMap, La meteo Aeronautica in un colpo d'occhio ! - Copyright ORBIFLY Dicembre 2007 - Disclaimer

ORBIFLY MET'MAP TEAM :

Programmazione e sviluppo : Alexandra Zaïnal
Concezione e sviluppo : Baudouin d'Aumeries
Co-Programmazione e sviluppo : Marc-Olivier Méhu
Supporto tecnico e logistico : Manuel Goepfert
Aiuto per la traduzione : Arnaldo La Scala

Contatto : metmap@orbifly.com




FONTI E CREDITI :

   NOAA